Location: Harbor Side
(32.6101°N, 117.0814°W)
Time: 19:01:36
(UTC+00:00)

Cosmos 1470 - Visible Passes

Search period start: 23 July 2021 00:00
Search period end: 02 August 2021 00:00
Orbit: 520 x 542 km, 82.5° (Epoch: 23 July)

Date Brightness Start Highest point End Pass type
(mag) Time Alt. Az. Time Alt. Az. Time Alt. Az.
23 Jul 4.9 11:50:38 10° SSE 11:53:57 27° E 11:57:18 10° NNE visible
24 Jul 5.0 11:40:28 10° SE 11:43:42 25° E 11:46:56 10° NE visible
25 Jul 5.1 11:30:17 10° SE 11:33:26 23° E 11:36:34 10° NE visible
26 Jul 5.2 11:20:08 10° SE 11:23:10 22° E 11:26:11 10° NE visible
27 Jul 5.2 11:10:00 10° SE 11:12:54 20° E 11:15:48 10° NE visible
28 Jul 5.3 10:59:51 10° SE 11:02:37 19° E 11:05:23 10° NE visible
29 Jul 5.4 10:49:44 10° SE 10:52:21 17° E 10:54:58 10° NE visible
29 Jul 4.1 12:25:04 10° SW 12:28:10 22° WNW 12:31:16 10° NNW visible
30 Jul 5.4 10:39:51 11° SE 10:42:05 16° E 10:44:32 10° NE visible
30 Jul 4.0 12:15:12 13° SW 12:17:52 24° WNW 12:21:03 10° NNW visible
31 Jul 5.4 10:30:13 12° ESE 10:31:49 15° E 10:34:05 10° NE visible
31 Jul 3.9 12:05:34 17° WSW 12:07:33 25° W 12:10:51 10° NNW visible
01 Aug 5.4 10:20:32 13° ESE 10:21:34 14° E 10:23:36 10° NE visible
01 Aug 3.8 11:55:54 22° WSW 11:57:16 27° W 12:00:38 10° NNW visible
